G6RZA-13 Weather Reports


time (UTC)temp
F
wind
direction
speed
knots
gust
knots
rain 1hr
in
rain 24hr
in
rain mn
in
humidity
%
barometer
mb
20260506095017 54 357 8.7 13.9 0.00 0.00 0.00 62 1013.4
20260506094020 54 355 6.1 12.2 0.00 0.00 0.00 62 1013.4
20260506093017 54 353 7.0 12.2 0.00 0.00 0.00 62 1013.3
20260506092018 54 358 7.0 13.0 0.00 0.00 0.00 63 1013.4
20260506091018 53 350 9.6 15.6 0.00 0.00 0.00 67 1013.4
20260506090018 53 1 7.0 13.0 0.00 0.00 0.00 68 1013.3
20260506085038 53 360 6.1 13.9 0.00 0.00 0.00 70 1013.3
20260506084018 52 355 7.8 13.0 0.00 0.00 0.00 71 1013.3
20260506083018 52 2 7.8 13.9 0.00 0.00 0.00 72 1013.2
20260506082018 52 346 7.0 13.9 0.00 0.00 0.00 74 1013.2
20260506081038 51 4 5.2 8.7 0.00 0.00 0.00 74 1013.1
20260506073022 50 342 7.0 11.3 0.00 0.00 0.00 79 1013.1
20260506072022 50 351 8.7 13.0 0.00 0.00 0.00 80 1013.1
20260506071022 49 353 5.2 8.7 0.00 0.00 0.00 82 1013.1
20260506070112 48 360 3.5 6.1 0.00 0.00 0.00 82 1013.1
20260506062017 49 355 5.2 9.6 0.00 0.00 0.00 84 1013.0
20260506061023 48 2 7.0 8.7 0.00 0.00 0.00 85 1013.0
20260506051018 48 7 4.3 5.2 0.00 0.00 0.00 85 1012.8
20260506045018 48 358 4.3 6.1 0.00 0.00 0.00 85 1012.7
20260506044036 48 359 5.2 6.1 0.00 0.00 0.00 84 1012.7
20260506043016 48 3 3.5 6.1 0.00 0.00 0.00 84 1012.7
20260506042018 48 354 5.2 8.7 0.00 0.00 0.00 84 1012.5
20260506041018 49 10 3.5 5.2 0.00 0.00 0.00 83 1012.5
20260506040018 49 358 3.5 6.1 0.00 0.00 0.00 83 1012.5
20260506035118 50 2 2.6 4.3 0.00 0.00 0.00 82 1012.5
20260506034018 50 1 2.6 6.1 0.00 0.00 0.00 82 1012.6
20260506033017 50 351 4.3 7.0 0.00 0.00 0.00 81 1012.5
20260506032017 50 354 3.5 5.2 0.00 0.00 0.00 81 1012.5
20260506031017 50 354 4.3 7.0 0.00 0.00 0.00 80 1012.5
20260506030018 51 360 3.5 7.0 0.00 0.00 0.00 80 1012.6
20260506025018 51 354 3.5 8.7 0.00 0.00 0.00 80 1012.6
20260506024017 51 14 3.5 6.1 0.00 0.00 0.00 80 1012.7
20260506023017 51 336 4.3 10.4 0.00 0.00 0.00 80 1012.6
20260506022038 51 352 4.3 5.2 0.00 0.00 0.00 80 1012.6
20260506021018 52 332 2.6 6.1 0.00 0.00 0.00 81 1012.6
20260506020018 52 357 4.3 7.0 0.00 0.00 0.00 81 1012.6
20260506015018 52 349 2.6 5.2 0.00 0.00 0.00 81 1012.6
20260506014018 52 358 3.5 6.1 0.00 0.00 0.00 80 1012.7
20260506013018 52 16 1.7 3.5 0.00 0.00 0.00 80 1012.6
20260506012018 52 12 5.2 7.0 0.00 0.00 0.00 80 1012.7
20260506011018 52 345 5.2 7.8 0.00 0.00 0.00 80 1012.7
20260506010018 52 1 1.7 5.2 0.00 0.00 0.00 79 1012.7
20260506005019 52 19 0.9 4.3 0.00 0.00 0.00 79 1012.7
20260506004019 52 357 2.6 5.2 0.00 0.00 0.00 79 1012.7
20260506003019 52 33 0.9 5.2 0.00 0.00 0.00 79 1012.8
20260506002019 52 10 2.6 7.0 0.00 0.00 0.00 78 1012.8
20260506001019 52 344 3.5 6.1 0.00 0.00 0.00 78 1012.8
20260506000019 52 348 2.6 7.0 0.00 0.00 0.00 78 1012.7
20260505235019 52 2 2.6 6.1 0.00 0.00 0.00 77 1012.7
20260505234019 52 8 1.7 5.2 0.00 0.00 0.00 77 1012.7
20260505233020 52 80 2.6 6.1 0.00 0.00 0.00 76 1012.7
20260505232020 52 6 2.6 6.1 0.00 0.00 0.00 76 1012.8
20260505231020 53 350 3.5 6.1 0.00 0.00 0.00 75 1012.8
20260505230020 53 1 3.5 7.0 0.00 0.00 0.00 74 1012.8
20260505225020 53 317 2.6 5.2 0.00 0.00 0.00 73 1012.8
20260505224016 53 352 1.7 12.2 0.00 0.00 0.00 73 1012.8
20260505223020 53 20 2.6 5.2 0.00 0.00 0.00 72 1012.7
20260505222041 53 325 1.7 3.5 0.00 0.00 0.00 71 1012.8
20260505221021 53 298 1.7 2.6 0.00 0.00 0.00 70 1012.8
20260505220021 53 244 1.7 4.3 0.00 0.00 0.00 70 1012.9
20260505215101 53 38 1.7 4.3 0.00 0.00 0.00 70 1012.9
20260505214021 53 104 2.6 4.3 0.00 0.00 0.00 69 1012.8
20260505213021 54 358 0.9 2.6 0.00 0.00 0.00 69 1012.8
20260505212021 54 10 2.6 5.2 0.00 0.00 0.00 69 1012.8
20260505211041 54 351 2.6 4.3 0.00 0.00 0.00 68 1012.8
20260505210021 54 16 1.7 5.2 0.00 0.00 0.00 67 1012.9
20260505205021 54 35 1.7 5.2 0.00 0.00 0.00 67 1012.8
20260505204022 54 28 3.5 5.2 0.00 0.00 0.00 66 1012.8
20260505203022 54 14 1.7 4.3 0.00 0.00 0.00 66 1012.8
20260505202022 55 16 1.7 3.5 0.00 0.00 0.00 66 1012.7
20260505201042 55 106 0.0 0.9 0.00 0.00 0.00 66 1012.6
20260505200022 55 88 0.0 0.9 0.00 0.00 0.00 67 1012.6
20260505195022 55 358 1.7 4.3 0.00 0.00 0.00 68 1012.4
20260505194022 55 45 0.9 3.5 0.00 0.00 0.00 68 1012.3
20260505193023 56 65 1.7 5.2 0.00 0.00 0.00 67 1012.2
20260505192023 56 8 0.9 1.7 0.00 0.00 0.00 65 1012.1
20260505191023 57 17 1.7 2.6 0.00 0.00 0.00 64 1012.1
20260505190023 57 21 0.9 2.6 0.00 0.00 0.00 62 1012.0
20260505185043 58 21 2.6 4.3 0.00 0.00 0.00 61 1012.0
20260505184023 58 360 1.7 4.3 0.00 0.00 0.00 61 1011.9
20260505183023 58 357 1.7 3.5 0.00 0.00 0.00 59 1011.9
20260505182024 58 20 1.7 4.3 0.00 0.00 0.00 57 1011.9
20260505181024 59 15 1.7 4.3 0.00 0.00 0.00 56 1011.9
20260505180024 60 350 1.7 6.1 0.00 0.00 0.00 54 1011.8
20260505175024 60 35 0.0 1.7 0.00 0.00 0.00 54 1011.9
20260505174024 60 92 0.9 1.7 0.00 0.00 0.00 53 1011.9
20260505173024 60 58 1.7 3.5 0.00 0.00 0.00 52 1012.0
20260505172025 60 51 1.7 6.1 0.00 0.00 0.00 51 1011.9
20260505171024 60 75 1.7 3.5 0.00 0.00 0.00 52 1011.9
20260505170024 61 245 2.6 7.0 0.00 0.00 0.00 51 1012.0
20260505165025 62 90 0.9 5.2 0.00 0.00 0.00 50 1011.9
20260505164021 62 118 3.5 12.2 0.00 0.00 0.00 49 1011.9
20260505163041 62 92 2.6 7.8 0.00 0.00 0.00 49 1011.9
20260505162025 63 113 1.7 5.2 0.00 0.00 0.00 47 1011.9
20260505161021 63 250 3.5 8.7 0.00 0.00 0.00 48 1011.8
20260505153026 63 354 3.5 7.0 0.00 0.00 0.00 48 1011.9
20260505152021 64 312 5.2 11.3 0.00 0.00 0.00 48 1011.9
20260505151022 63 218 2.6 7.8 0.00 0.00 0.00 49 1011.9
20260505124017 61 346 1.7 4.3 0.00 0.00 0.00 56 1012.4
20260505123017 62 315 3.5 12.2 0.00 0.00 0.00 58 1012.5
20260505122017 61 222 3.5 8.7 0.00 0.00 0.00 58 1012.5
20260505121024 62 348 5.2 13.0 0.00 0.00 0.00 57 1012.5
20260505120023 62 316 3.5 7.8 0.00 0.00 0.00 57 1012.6
20260505115129 61 37 3.5 12.2 0.00 0.00 0.00 59 1012.7
20260505114017 60 11 4.3 12.2 0.00 0.00 0.00 61 1012.8
20260505113038 60 163 3.5 6.1 0.00 0.00 0.00 60 1012.8
20260505112018 60 313 3.5 7.8 0.00 0.00 0.00 61 1012.9
20260505111018 60 49 3.5 7.8 0.00 0.00 0.00 60 1013.0
20260505102048 59 144 3.5 6.1 0.00 0.00 0.00 62 1013.0
20260505101029 59 340 1.7 4.3 0.00 0.00 0.00 65 1013.0
20260505100059 59 348 5.2 14.8 0.00 0.00 0.00 65 1013.0
20260505095029 58 70 2.6 5.2 0.00 0.00 0.00 68 1013.0